Location: Ethel Rock
(53.4667°N, 4.5667°W)
Time: 01:07:45
(UTC+00:00)

USA 234 - Pass Details

Date: 24 October 2020
Orbit: 1100 x 1108 km, 123.0° (Epoch: 13 November)

Event Time Altitude Azimuth Distance (km) Brightness Sun altitude
Rises 03:59:59 0° 71° (ENE) 3,923 7.5 -27.5°
Reaches altitude 10° 04:02:28 10° 70° (ENE) 2,965 6.5 -27.2°
Maximum altitude 04:08:59 73° 347° (NNW) 1,153 3.3 -26.3°
Enters shadow 04:10:34 53° 282° (WNW) 1,332 3.3 -26.0°
